Regional Weather Roundup
Issued by NWS

Home | Current Version | Previous Version | Graphics & Text | Print | Product List | Glossary On
Versions: 1 2 3 4 5 6 7 8 9 10 11 12 13 14 15 16 17 18 19 20 21 22 23 24 25 26 27 28 29 30 31 32 33 34 35 36 37 38 39 40 41 42 43 44 45 46 47 48 49 50
420
ASUS43 KOAX 280302
RWRNE

WEATHER ROUNDUP FOR NEBRASKA
NATIONAL WEATHER SERVICE OMAHA NE
1000 PM CDT WED JUL 27 2016

NOTES: SATELLITE DATA IS BEING USED TO AUGMENT CLOUD COVER ABOVE
       12000 FEET.
       "FAIR" INDICATES FEW OR NO CLOUDS BELOW 12,000 FEET WITH NO
       SIGNIFICANT WEATHER AND/OR OBSTRUCTIONS TO VISIBILITY.

  * THESE STATIONS DO NOT REPORT WEATHER SUCH AS RAIN...SNOW OR FOG.

NEZ001>004-019>022-054>056-280400-
NEBRASKA PANHANDLE

CITY           SKY/WX    TMP DP  RH WIND       PRES   REMARKS
SCOTTSBLUFF    CLEAR     75  58  55 NE13      30.14R
ALLIANCE       CLOUDY    70  57  63 E7        30.16R
CHADRON        CLOUDY    73  61  65 E5        30.15R
SIDNEY         CLOUDY    67  63  87 SE10      30.16R
$$

NEZ057>060-069>072-079>082-280400-
SOUTHWEST NEBRASKA

CITY           SKY/WX    TMP DP  RH WIND       PRES   REMARKS
NORTH PLATTE   CLEAR     69  62  78 E3        30.11R
IMPERIAL       CLOUDY    77  60  55 NE9       30.12R
LEXINGTON      CLEAR     74  69  83 NE6       30.09R
MCCOOK         PTCLDY    76  67  73 E7        30.07R
OGALLALA       CLOUDY    76  62  61 E6        30.11S
$$

NEZ005>010-023>029-035>040-094-280400-
NORTH CENTRAL NEBRASKA

CITY           SKY/WX    TMP DP  RH WIND       PRES   REMARKS
VALENTINE      CLOUDY    64  58  80 MISG      30.12S
AINSWORTH      MOCLDY    65  57  76 N8        30.14R
BROKEN BOW     CLEAR     66  63  90 N5        30.12R
O`NEILL        CLOUDY    66  59  78 NW22G35   30.10R
ORD            PTCLDY    68  63  84 N7        30.08R
THEDFORD       CLEAR     66  60  78 E6        30.16R
$$

NEZ041-046>049-061>064-073>077-083>087-280400-
SOUTH CENTRAL NEBRASKA

CITY           SKY/WX    TMP DP  RH WIND       PRES   REMARKS
GRAND ISLAND   CLOUDY    75  67  76 N5        30.05R
AURORA         PTCLDY    73  70  89 NE6       30.02R
HASTINGS       CLOUDY    79  65  62 VRB3      30.03F
HEBRON         PTCLDY    79  67  66 N6        30.02R
HOLDREGE       CLEAR     72  69  89 CALM      30.06S
KEARNEY *      CLOUDY    75  18  11 N5        30.06R
YORK           PTCLDY    72  68  88 N3        30.03R
$$

NEZ011>018-030>034-042>045-280400-
NORTHEAST NEBRASKA

CITY           SKY/WX    TMP DP  RH WIND       PRES   REMARKS
NORFOLK        CLOUDY    69  61  75 N10       30.01F
ALBION         PTCLDY    68  62  80 NW3       30.04R
BLAIR          CLOUDY    77  67  71 N5        29.99R
FREMONT        PTCLDY    77  67  71 NW3       29.99S
TEKAMAH        CLOUDY    76  69  79 NW5       29.97S
WAYNE          CLOUDY    71  61  71 N9        30.04R
$$

NEZ050>053-065>068-078-088>093-280400-
SOUTHEAST NEBRASKA

CITY           SKY/WX    TMP DP  RH WIND       PRES   REMARKS
LINCOLN        CLEAR     76  69  79 N8        30.00R
OMAHA EPPLEY   CLOUDY    77  71  82 N5        29.97R
BEATRICE       CLEAR     75  69  81 NW7       30.00R
FALLS CITY     CLEAR     77  71  82 NW5       29.96R
NEBRASKA CITY  CLEAR     74  70  86 NE3       29.99R
PLATTSMOUTH    CLEAR     77  70  79 CALM      29.99R
$$

NEZ044-045-051>053-067-280400-
OMAHA AREA

CITY           SKY/WX    TMP DP  RH WIND       PRES   REMARKS
OMAHA EPPLEY   CLOUDY    77  71  82 N5        29.97R
BLAIR          CLOUDY    77  67  71 N5        29.99R
FREMONT        PTCLDY    77  67  71 NW3       29.99S
MILLARD        CLOUDY    81  68  65 CALM      29.98R
OFFUTT AFB     CLOUDY    77  69  76 N1        29.97R
PLATTSMOUTH    CLEAR     77  70  79 CALM      29.99R
WAHOO          FAIR      73  68  84 CALM      29.99R
$$




USA.gov is the U.S. government's official web portal to all federal, state and local government web resources and services.